Year,Month,Day,Hour,Minute,Value (Times are PST for temperature in C)
2009,07,04,00,00,16.60
2009,07,04,00,01,16.60
2009,07,04,00,02,16.60
2009,07,04,00,03,16.40
2009,07,04,00,04,16.40
2009,07,04,00,05,16.40
2009,07,04,00,06,16.40
2009,07,04,00,07,16.40
2009,07,04,00,08,16.40
2009,07,04,00,09,16.40
2009,07,04,00,10,16.30
2009,07,04,00,11,16.30
2009,07,04,00,12,16.30
2009,07,04,00,13,16.30
2009,07,04,00,14,16.30
2009,07,04,00,15,16.20
2009,07,04,00,16,16.20
2009,07,04,00,17,16.20
2009,07,04,00,18,16.20
2009,07,04,00,19,16.20
2009,07,04,00,20,16.10
2009,07,04,00,21,16.10
2009,07,04,00,22,16.10
2009,07,04,00,23,16.10
2009,07,04,00,24,16.10
2009,07,04,00,25,16.10
2009,07,04,00,26,16.10
2009,07,04,00,27,16.10
2009,07,04,00,28,16.10
2009,07,04,00,29,16.10
2009,07,04,00,30,16.10
2009,07,04,00,31,16.10
2009,07,04,00,32,16.10
2009,07,04,00,33,16.10
2009,07,04,00,34,16.10
2009,07,04,00,35,16.10
2009,07,04,00,36,16.00
2009,07,04,00,37,15.90
2009,07,04,00,38,15.90
2009,07,04,00,39,15.90
2009,07,04,00,40,15.90
2009,07,04,00,41,15.80
2009,07,04,00,42,15.80
2009,07,04,00,43,15.80
2009,07,04,00,44,15.80
2009,07,04,00,45,15.80
2009,07,04,00,46,15.80
2009,07,04,00,47,15.80
2009,07,04,00,48,15.80
2009,07,04,00,49,15.80
2009,07,04,00,50,15.80
2009,07,04,00,51,15.80
2009,07,04,00,52,15.70
2009,07,04,00,53,15.70
2009,07,04,00,54,15.70
2009,07,04,00,55,15.80
2009,07,04,00,56,15.80
2009,07,04,00,57,15.80
2009,07,04,00,58,15.80
2009,07,04,00,59,15.80
2009,07,04,01,00,15.80
2009,07,04,01,01,15.80
2009,07,04,01,02,15.80
2009,07,04,01,03,15.80
2009,07,04,01,04,15.80
2009,07,04,01,05,15.80
2009,07,04,01,06,15.80
2009,07,04,01,07,15.80
2009,07,04,01,08,15.80
2009,07,04,01,09,15.80
2009,07,04,01,10,15.80
2009,07,04,01,11,15.80
2009,07,04,01,12,15.80
2009,07,04,01,13,15.80
2009,07,04,01,14,15.80
2009,07,04,01,15,15.80
2009,07,04,01,16,15.80
2009,07,04,01,17,15.80
2009,07,04,01,18,15.80
2009,07,04,01,19,15.80
2009,07,04,01,20,15.80
2009,07,04,01,21,15.80
2009,07,04,01,22,15.80
2009,07,04,01,23,15.80
2009,07,04,01,24,15.80
2009,07,04,01,25,15.80
2009,07,04,01,26,15.70
2009,07,04,01,27,15.70
2009,07,04,01,28,15.70
2009,07,04,01,29,15.70
2009,07,04,01,30,15.70
2009,07,04,01,31,15.60
2009,07,04,01,32,15.60
2009,07,04,01,33,15.60
2009,07,04,01,34,15.50
2009,07,04,01,35,15.50
2009,07,04,01,36,15.50
2009,07,04,01,37,15.40
2009,07,04,01,38,15.40
2009,07,04,01,39,15.40
2009,07,04,01,40,15.30
2009,07,04,01,41,15.30
2009,07,04,01,42,15.30
2009,07,04,01,43,15.30
2009,07,04,01,44,15.30
2009,07,04,01,45,15.30
2009,07,04,01,46,15.30
2009,07,04,01,47,15.30
2009,07,04,01,48,15.30
2009,07,04,01,49,15.30
2009,07,04,01,50,15.30
2009,07,04,01,51,15.30
2009,07,04,01,52,15.30
2009,07,04,01,53,15.30
2009,07,04,01,54,15.30
2009,07,04,01,55,15.30
2009,07,04,01,56,15.30
2009,07,04,01,57,15.30
2009,07,04,01,58,15.30
2009,07,04,01,59,15.30
2009,07,04,02,00,15.20
2009,07,04,02,01,15.20
2009,07,04,02,02,15.20
2009,07,04,02,03,15.20
2009,07,04,02,04,15.10
2009,07,04,02,05,15.10
2009,07,04,02,06,15.10
2009,07,04,02,07,15.10
2009,07,04,02,08,15.00
2009,07,04,02,09,15.00
2009,07,04,02,10,15.00
2009,07,04,02,11,15.00
2009,07,04,02,12,14.90
2009,07,04,02,13,14.90
2009,07,04,02,14,14.90
2009,07,04,02,15,14.90
2009,07,04,02,16,14.80
2009,07,04,02,17,14.80
2009,07,04,02,18,14.80
2009,07,04,02,19,14.80
2009,07,04,02,20,14.80
2009,07,04,02,21,14.80
2009,07,04,02,22,14.80
2009,07,04,02,23,14.80
2009,07,04,02,24,14.80
2009,07,04,02,25,14.80
2009,07,04,02,26,14.80
2009,07,04,02,27,14.80
2009,07,04,02,28,14.80
2009,07,04,02,29,14.80
2009,07,04,02,30,14.80
2009,07,04,02,31,14.80
2009,07,04,02,32,14.80
2009,07,04,02,33,14.80
2009,07,04,02,34,14.80
2009,07,04,02,35,14.80
2009,07,04,02,36,14.80
2009,07,04,02,37,14.80
2009,07,04,02,38,14.80
2009,07,04,02,39,14.80
2009,07,04,02,40,14.80
2009,07,04,02,41,14.80
2009,07,04,02,42,14.80
2009,07,04,02,43,14.80
2009,07,04,02,44,14.80
2009,07,04,02,45,14.80
2009,07,04,02,46,14.70
2009,07,04,02,47,14.70
2009,07,04,02,48,14.70
2009,07,04,02,49,14.60
2009,07,04,02,50,14.60
2009,07,04,02,51,14.60
2009,07,04,02,52,14.60
2009,07,04,02,53,14.50
2009,07,04,02,54,14.50
2009,07,04,02,55,14.50
2009,07,04,02,56,14.50
2009,07,04,02,57,14.50
2009,07,04,02,58,14.50
2009,07,04,02,59,14.50
2009,07,04,03,00,14.50
2009,07,04,03,01,14.50
2009,07,04,03,02,14.50
2009,07,04,03,03,14.50
2009,07,04,03,04,14.50
2009,07,04,03,05,14.50
2009,07,04,03,06,14.50
2009,07,04,03,07,14.50
2009,07,04,03,08,14.50
2009,07,04,03,09,14.50
2009,07,04,03,10,14.50
2009,07,04,03,11,14.50
2009,07,04,03,12,14.50
2009,07,04,03,13,14.50
2009,07,04,03,14,14.50
2009,07,04,03,15,14.50
2009,07,04,03,16,14.50
2009,07,04,03,17,14.50
2009,07,04,03,18,14.50
2009,07,04,03,19,14.50
2009,07,04,03,20,14.50
2009,07,04,03,21,14.50
2009,07,04,03,22,14.50
2009,07,04,03,23,14.50
2009,07,04,03,24,14.40
2009,07,04,03,25,14.40
2009,07,04,03,26,14.40
2009,07,04,03,27,14.40
2009,07,04,03,28,14.30
2009,07,04,03,29,14.30
2009,07,04,03,30,14.30
2009,07,04,03,31,14.30
2009,07,04,03,32,14.30
2009,07,04,03,33,14.20
2009,07,04,03,34,14.20
2009,07,04,03,35,14.20
2009,07,04,03,36,14.20
2009,07,04,03,37,14.20
2009,07,04,03,38,14.20
2009,07,04,03,39,14.20
2009,07,04,03,40,14.10
2009,07,04,03,41,14.10
2009,07,04,03,42,14.10
2009,07,04,03,43,14.10
2009,07,04,03,44,14.10
2009,07,04,03,45,14.10
2009,07,04,03,46,14.10
2009,07,04,03,47,14.10
2009,07,04,03,48,14.10
2009,07,04,03,49,14.00
2009,07,04,03,50,14.00
2009,07,04,03,51,14.00
2009,07,04,03,52,14.00
2009,07,04,03,53,14.00
2009,07,04,03,54,13.90
2009,07,04,03,55,13.90
2009,07,04,03,56,13.90
2009,07,04,03,57,13.90
2009,07,04,03,58,13.90
2009,07,04,03,59,13.90
2009,07,04,04,00,13.90
2009,07,04,04,01,13.90
2009,07,04,04,02,13.90
2009,07,04,04,03,13.90
2009,07,04,04,04,13.80
2009,07,04,04,05,13.80
2009,07,04,04,06,13.80
2009,07,04,04,07,13.80
2009,07,04,04,08,13.80
2009,07,04,04,09,13.80
2009,07,04,04,10,13.70
2009,07,04,04,11,13.70
2009,07,04,04,12,13.70
2009,07,04,04,13,13.70
2009,07,04,04,14,13.70
2009,07,04,04,15,13.70
2009,07,04,04,16,13.60
2009,07,04,04,17,13.60
2009,07,04,04,18,13.60
2009,07,04,04,19,13.50
2009,07,04,04,20,13.50
2009,07,04,04,21,13.40
2009,07,04,04,22,13.40
2009,07,04,04,23,13.40
2009,07,04,04,24,13.40
2009,07,04,04,25,13.40
2009,07,04,04,26,13.40
2009,07,04,04,27,13.40
2009,07,04,04,28,13.40
2009,07,04,04,29,13.40
2009,07,04,04,30,13.40
2009,07,04,04,31,13.40
2009,07,04,04,32,13.40
2009,07,04,04,33,13.40
2009,07,04,04,34,13.40
2009,07,04,04,35,13.40
2009,07,04,04,36,13.40
2009,07,04,04,37,13.40
2009,07,04,04,38,13.40
2009,07,04,04,39,13.30
2009,07,04,04,40,13.30
2009,07,04,04,41,13.30
2009,07,04,04,42,13.30
2009,07,04,04,43,13.30
2009,07,04,04,44,13.30
2009,07,04,04,45,13.30
2009,07,04,04,46,13.30
2009,07,04,04,47,13.30
2009,07,04,04,48,13.30
2009,07,04,04,49,13.30
2009,07,04,04,50,13.30
2009,07,04,04,51,13.30
2009,07,04,04,52,13.30
2009,07,04,04,53,13.30
2009,07,04,04,54,13.30
2009,07,04,04,55,13.30
2009,07,04,04,56,13.30
2009,07,04,04,57,13.30
2009,07,04,04,58,13.30
2009,07,04,04,59,13.30
2009,07,04,05,00,13.30
2009,07,04,05,01,13.30
2009,07,04,05,02,13.30
2009,07,04,05,03,13.20
2009,07,04,05,04,13.20
2009,07,04,05,05,13.20
2009,07,04,05,06,13.20
2009,07,04,05,07,13.20
2009,07,04,05,08,13.20
2009,07,04,05,09,13.20
2009,07,04,05,10,13.10
2009,07,04,05,11,13.10
2009,07,04,05,12,13.10
2009,07,04,05,13,13.10
2009,07,04,05,14,13.10
2009,07,04,05,15,13.10
2009,07,04,05,16,13.10
2009,07,04,05,17,13.10
2009,07,04,05,18,13.10
2009,07,04,05,19,13.10
2009,07,04,05,20,13.10
2009,07,04,05,21,13.00
2009,07,04,05,22,13.00
2009,07,04,05,23,13.00
2009,07,04,05,24,13.00
2009,07,04,05,25,13.00
2009,07,04,05,26,13.00
2009,07,04,05,27,13.00
2009,07,04,05,28,13.00
2009,07,04,05,29,13.00
2009,07,04,05,30,13.00
2009,07,04,05,31,13.00
2009,07,04,05,32,12.90
2009,07,04,05,33,12.90
2009,07,04,05,34,12.90
2009,07,04,05,35,12.90
2009,07,04,05,36,13.00
2009,07,04,05,37,13.00
2009,07,04,05,38,13.00
2009,07,04,05,39,12.90
2009,07,04,05,40,12.90
2009,07,04,05,41,12.90
2009,07,04,05,42,12.90
2009,07,04,05,43,12.90
2009,07,04,05,44,12.90
2009,07,04,05,45,12.90
2009,07,04,05,46,12.90
2009,07,04,05,47,12.90
2009,07,04,05,48,12.90
2009,07,04,05,49,12.90
2009,07,04,05,50,12.90
2009,07,04,05,51,12.90
2009,07,04,05,52,12.90
2009,07,04,05,53,12.90
2009,07,04,05,54,12.90
2009,07,04,05,55,12.90
2009,07,04,05,56,12.90
2009,07,04,05,57,12.90
2009,07,04,05,58,12.90
2009,07,04,05,59,12.90
2009,07,04,06,00,12.90
2009,07,04,06,01,12.90
2009,07,04,06,02,12.90
2009,07,04,06,03,12.90
2009,07,04,06,04,13.00
2009,07,04,06,05,13.00
2009,07,04,06,06,13.00
2009,07,04,06,07,13.00
2009,07,04,06,08,13.00
2009,07,04,06,09,13.10
2009,07,04,06,10,13.10
2009,07,04,06,11,13.10
2009,07,04,06,12,13.10
2009,07,04,06,13,13.10
2009,07,04,06,14,13.10
2009,07,04,06,15,13.20
2009,07,04,06,16,13.20
2009,07,04,06,17,13.20
2009,07,04,06,18,13.20
2009,07,04,06,19,13.30
2009,07,04,06,20,13.30
2009,07,04,06,21,13.30
2009,07,04,06,22,13.30
2009,07,04,06,23,13.30
2009,07,04,06,24,13.30
2009,07,04,06,25,13.30
2009,07,04,06,26,13.30
2009,07,04,06,27,13.30
2009,07,04,06,28,13.30
2009,07,04,06,29,13.30
2009,07,04,06,30,13.30
2009,07,04,06,31,13.40
2009,07,04,06,32,13.40
2009,07,04,06,33,13.40
2009,07,04,06,34,13.40
2009,07,04,06,35,13.50
2009,07,04,06,36,13.50
2009,07,04,06,37,13.60
2009,07,04,06,38,13.60
2009,07,04,06,39,13.60
2009,07,04,06,40,13.70
2009,07,04,06,41,13.80
2009,07,04,06,42,13.90
2009,07,04,06,43,14.00
2009,07,04,06,44,14.10
2009,07,04,06,45,14.20
2009,07,04,06,46,14.30
2009,07,04,06,47,14.40
2009,07,04,06,48,14.50
2009,07,04,06,49,14.60
2009,07,04,06,50,14.70
2009,07,04,06,51,14.80
2009,07,04,06,52,14.90
2009,07,04,06,53,15.00
2009,07,04,06,54,15.10
2009,07,04,06,55,15.20
2009,07,04,06,56,15.30
2009,07,04,06,57,15.30
2009,07,04,06,58,15.50
2009,07,04,06,59,15.50
2009,07,04,07,00,15.60
2009,07,04,07,01,15.70
2009,07,04,07,02,15.80
2009,07,04,07,03,15.90
2009,07,04,07,04,16.00
2009,07,04,07,05,16.10
2009,07,04,07,06,16.10
2009,07,04,07,07,16.20
2009,07,04,07,08,16.30
2009,07,04,07,09,16.40
2009,07,04,07,10,16.40
2009,07,04,07,11,16.40
2009,07,04,07,12,16.60
2009,07,04,07,13,16.70
2009,07,04,07,14,16.70
2009,07,04,07,15,16.70
2009,07,04,07,16,16.80
2009,07,04,07,17,16.80
2009,07,04,07,18,16.90
2009,07,04,07,19,16.90
2009,07,04,07,20,17.00
2009,07,04,07,21,17.00
2009,07,04,07,22,17.10
2009,07,04,07,23,17.20
2009,07,04,07,24,17.20
2009,07,04,07,25,17.30
2009,07,04,07,26,17.40
2009,07,04,07,27,17.50
2009,07,04,07,28,17.50
2009,07,04,07,29,17.60
2009,07,04,07,30,17.70
2009,07,04,07,31,17.80
2009,07,04,07,32,17.80
2009,07,04,07,33,17.90
2009,07,04,07,34,17.90
2009,07,04,07,35,18.00
2009,07,04,07,36,18.10
2009,07,04,07,37,18.10
2009,07,04,07,38,18.10
2009,07,04,07,39,18.10
2009,07,04,07,40,18.20
2009,07,04,07,41,18.20
2009,07,04,07,42,18.20
2009,07,04,07,43,18.20
2009,07,04,07,44,18.20
2009,07,04,07,45,18.20
2009,07,04,07,46,18.20
2009,07,04,07,47,18.20
2009,07,04,07,48,18.20
2009,07,04,07,49,18.20
2009,07,04,07,50,18.40
2009,07,04,07,51,18.50
2009,07,04,07,52,18.50
2009,07,04,07,53,18.60
2009,07,04,07,54,18.60
2009,07,04,07,55,18.60
2009,07,04,07,56,18.50
2009,07,04,07,57,18.50
2009,07,04,07,58,18.40
2009,07,04,07,59,18.30
2009,07,04,08,00,18.20
2009,07,04,08,01,18.20
2009,07,04,08,02,18.10
2009,07,04,08,03,18.00
2009,07,04,08,04,17.90
2009,07,04,08,05,17.90
2009,07,04,08,06,17.90
2009,07,04,08,07,17.90
2009,07,04,08,08,17.80
2009,07,04,08,09,17.80
2009,07,04,08,10,17.80
2009,07,04,08,11,17.80
2009,07,04,08,12,17.70
2009,07,04,08,13,17.70
2009,07,04,08,14,17.70
2009,07,04,08,15,17.70
2009,07,04,08,16,17.80
2009,07,04,08,17,17.80
2009,07,04,08,18,17.80
2009,07,04,08,19,17.90
2009,07,04,08,20,17.90
2009,07,04,08,21,17.90
2009,07,04,08,22,17.90
2009,07,04,08,23,17.90
2009,07,04,08,24,17.90
2009,07,04,08,25,18.00
2009,07,04,08,26,18.10
2009,07,04,08,27,18.10
2009,07,04,08,28,18.10
2009,07,04,08,29,18.10
2009,07,04,08,30,18.00
2009,07,04,08,31,17.90
2009,07,04,08,32,17.90
2009,07,04,08,33,17.80
2009,07,04,08,34,17.80
2009,07,04,08,35,17.70
2009,07,04,08,36,17.70
2009,07,04,08,37,17.60
2009,07,04,08,38,17.50
2009,07,04,08,39,17.40
2009,07,04,08,40,17.40
2009,07,04,08,41,17.40
2009,07,04,08,42,17.50
2009,07,04,08,43,17.50
2009,07,04,08,44,17.50
2009,07,04,08,45,17.50
2009,07,04,08,46,17.60
2009,07,04,08,47,17.60
2009,07,04,08,48,17.70
2009,07,04,08,49,17.70
2009,07,04,08,50,17.80
2009,07,04,08,51,17.80
2009,07,04,08,52,17.90
2009,07,04,08,53,18.00
2009,07,04,08,54,18.10
2009,07,04,08,55,18.20
2009,07,04,08,56,18.40
2009,07,04,08,57,18.40
2009,07,04,08,58,18.40
2009,07,04,08,59,18.40
2009,07,04,09,00,18.40
2009,07,04,09,01,18.40
2009,07,04,09,02,18.40
2009,07,04,09,03,18.40
2009,07,04,09,04,18.40
2009,07,04,09,05,18.50
2009,07,04,09,06,18.60
2009,07,04,09,07,18.70
2009,07,04,09,08,18.90
2009,07,04,09,09,19.00
2009,07,04,09,10,19.10
2009,07,04,09,11,19.10
2009,07,04,09,12,19.10
2009,07,04,09,13,19.20
2009,07,04,09,14,19.20
2009,07,04,09,15,19.10
2009,07,04,09,16,19.10
2009,07,04,09,17,19.10
2009,07,04,09,18,19.10
2009,07,04,09,19,19.10
2009,07,04,09,20,19.10
2009,07,04,09,21,19.10
2009,07,04,09,22,19.10
2009,07,04,09,23,19.20
2009,07,04,09,24,19.20
2009,07,04,09,25,19.20
2009,07,04,09,26,19.20
2009,07,04,09,27,19.20
2009,07,04,09,28,19.30
2009,07,04,09,29,19.30
2009,07,04,09,30,19.30
2009,07,04,09,31,19.10
2009,07,04,09,32,19.10
2009,07,04,09,33,18.90
2009,07,04,09,34,18.90
2009,07,04,09,35,18.70
2009,07,04,09,36,18.60
2009,07,04,09,37,18.60
2009,07,04,09,38,18.60
2009,07,04,09,39,18.60
2009,07,04,09,40,18.70
2009,07,04,09,41,18.80
2009,07,04,09,42,18.80
2009,07,04,09,43,18.90
2009,07,04,09,44,19.00
2009,07,04,09,45,19.00
2009,07,04,09,46,18.90
2009,07,04,09,47,18.80
2009,07,04,09,48,18.80
2009,07,04,09,49,18.70
2009,07,04,09,50,18.50
2009,07,04,09,51,18.40
2009,07,04,09,52,18.40
2009,07,04,09,53,18.50
2009,07,04,09,54,18.50
2009,07,04,09,55,18.60
2009,07,04,09,56,18.60
2009,07,04,09,57,18.70
2009,07,04,09,58,18.70
2009,07,04,09,59,18.80
2009,07,04,10,00,18.90
2009,07,04,10,01,18.90
2009,07,04,10,02,19.10
2009,07,04,10,03,19.10
2009,07,04,10,04,19.10
2009,07,04,10,05,19.10
2009,07,04,10,06,19.10
2009,07,04,10,07,18.90
2009,07,04,10,08,18.90
2009,07,04,10,09,18.90
2009,07,04,10,10,18.90
2009,07,04,10,11,18.90
2009,07,04,10,12,18.80
2009,07,04,10,13,18.70
2009,07,04,10,14,18.70
2009,07,04,10,15,18.80
2009,07,04,10,16,18.80
2009,07,04,10,17,18.80
2009,07,04,10,18,18.90
2009,07,04,10,19,19.00
2009,07,04,10,20,19.10
2009,07,04,10,21,19.10
2009,07,04,10,22,19.10
2009,07,04,10,23,19.10
2009,07,04,10,24,19.20
2009,07,04,10,25,19.20
2009,07,04,10,26,19.20
2009,07,04,10,27,19.30
2009,07,04,10,28,19.30
2009,07,04,10,29,19.40
2009,07,04,10,30,19.60
2009,07,04,10,31,19.70
2009,07,04,10,32,19.80
2009,07,04,10,33,19.90
2009,07,04,10,34,20.10
2009,07,04,10,35,20.20
2009,07,04,10,36,20.20
2009,07,04,10,37,20.20
2009,07,04,10,38,20.10
2009,07,04,10,39,20.00
2009,07,04,10,40,19.90
2009,07,04,10,41,19.90
2009,07,04,10,42,19.90
2009,07,04,10,43,19.90
2009,07,04,10,44,19.90
2009,07,04,10,45,19.80
2009,07,04,10,46,19.80
2009,07,04,10,47,19.80
2009,07,04,10,48,19.70
2009,07,04,10,49,19.50
2009,07,04,10,50,19.40
2009,07,04,10,51,19.20
2009,07,04,10,52,19.10
2009,07,04,10,53,18.80
2009,07,04,10,54,18.60
2009,07,04,10,55,18.40
2009,07,04,10,56,18.30
2009,07,04,10,57,18.30
2009,07,04,10,58,18.30
2009,07,04,10,59,18.30
2009,07,04,11,00,18.30
2009,07,04,11,01,18.30
2009,07,04,11,02,18.20
2009,07,04,11,03,18.10
2009,07,04,11,04,17.90
2009,07,04,11,05,17.90
2009,07,04,11,06,18.00
2009,07,04,11,07,18.10
2009,07,04,11,08,18.00
2009,07,04,11,09,17.90
2009,07,04,11,10,17.90
2009,07,04,11,11,17.90
2009,07,04,11,12,18.00
2009,07,04,11,13,18.10
2009,07,04,11,14,18.10
2009,07,04,11,15,18.20
2009,07,04,11,16,18.30
2009,07,04,11,17,18.40
2009,07,04,11,18,18.50
2009,07,04,11,19,18.50
2009,07,04,11,20,18.60
2009,07,04,11,21,18.60
2009,07,04,11,22,18.70
2009,07,04,11,23,18.80
2009,07,04,11,24,18.80
2009,07,04,11,25,18.70
2009,07,04,11,26,18.80
2009,07,04,11,27,18.90
2009,07,04,11,28,18.90
2009,07,04,11,29,18.90
2009,07,04,11,30,18.80
2009,07,04,11,31,18.90
2009,07,04,11,32,18.90
2009,07,04,11,33,18.90
2009,07,04,11,34,18.80
2009,07,04,11,35,18.80
2009,07,04,11,36,18.80
2009,07,04,11,37,18.80
2009,07,04,11,38,18.80
2009,07,04,11,39,18.70
2009,07,04,11,40,18.70
2009,07,04,11,41,18.80
2009,07,04,11,42,18.80
2009,07,04,11,43,18.80
2009,07,04,11,44,18.90
2009,07,04,11,45,18.90
2009,07,04,11,46,18.90
2009,07,04,11,47,19.10
2009,07,04,11,48,19.10
2009,07,04,11,49,19.20
2009,07,04,11,50,19.20
2009,07,04,11,51,19.10
2009,07,04,11,52,19.10
2009,07,04,11,53,19.00
2009,07,04,11,54,18.90
2009,07,04,11,55,18.90
2009,07,04,11,56,18.80
2009,07,04,11,57,18.90
2009,07,04,11,58,18.90
2009,07,04,11,59,19.00
2009,07,04,12,00,19.10
2009,07,04,12,01,19.20
2009,07,04,12,02,19.30
2009,07,04,12,03,19.40
2009,07,04,12,04,19.50
2009,07,04,12,05,19.50
2009,07,04,12,06,19.50
2009,07,04,12,07,19.60
2009,07,04,12,08,19.60
2009,07,04,12,09,19.60
2009,07,04,12,10,19.60
2009,07,04,12,11,19.60
2009,07,04,12,12,19.60
2009,07,04,12,13,19.50
2009,07,04,12,14,19.60
2009,07,04,12,15,19.70
2009,07,04,12,16,19.70
2009,07,04,12,17,19.80
2009,07,04,12,18,19.80
2009,07,04,12,19,19.90
2009,07,04,12,20,19.90
2009,07,04,12,21,19.90
2009,07,04,12,22,19.90
2009,07,04,12,23,19.90
2009,07,04,12,24,19.90
2009,07,04,12,25,19.90
2009,07,04,12,26,19.90
2009,07,04,12,27,19.90
2009,07,04,12,28,19.90
2009,07,04,12,29,19.90
2009,07,04,12,30,19.90
2009,07,04,12,31,19.80
2009,07,04,12,32,19.80
2009,07,04,12,33,19.80
2009,07,04,12,34,19.80
2009,07,04,12,35,19.80
2009,07,04,12,36,19.70
2009,07,04,12,37,19.60
2009,07,04,12,38,19.40
2009,07,04,12,39,19.30
2009,07,04,12,40,19.40
2009,07,04,12,41,19.40
2009,07,04,12,42,19.40
2009,07,04,12,43,19.30
2009,07,04,12,44,19.30
2009,07,04,12,45,19.30
2009,07,04,12,46,19.10
2009,07,04,12,47,19.10
2009,07,04,12,48,19.10
2009,07,04,12,49,19.10
2009,07,04,12,50,19.20
2009,07,04,12,51,19.20
2009,07,04,12,52,19.20
2009,07,04,12,53,19.20
2009,07,04,12,54,19.20
2009,07,04,12,55,19.20
2009,07,04,12,56,19.30
2009,07,04,12,57,19.40
2009,07,04,12,58,19.40
2009,07,04,12,59,19.50
2009,07,04,13,00,19.60
2009,07,04,13,01,19.70
2009,07,04,13,02,19.80
2009,07,04,13,03,19.80
2009,07,04,13,04,19.70
2009,07,04,13,05,19.70
2009,07,04,13,06,19.70
2009,07,04,13,07,19.60
2009,07,04,13,08,19.50
2009,07,04,13,09,19.50
2009,07,04,13,10,19.40
2009,07,04,13,11,19.40
2009,07,04,13,12,19.40
2009,07,04,13,13,19.40
2009,07,04,13,14,19.40
2009,07,04,13,15,19.30
2009,07,04,13,16,19.30
2009,07,04,13,17,19.30
2009,07,04,13,18,19.10
2009,07,04,13,19,19.10
2009,07,04,13,20,19.10
2009,07,04,13,21,19.10
2009,07,04,13,22,19.30
2009,07,04,13,23,19.50
2009,07,04,13,24,19.80
2009,07,04,13,25,19.90
2009,07,04,13,26,19.90
2009,07,04,13,27,19.90
2009,07,04,13,28,20.00
2009,07,04,13,29,20.10
2009,07,04,13,30,20.20
2009,07,04,13,31,20.20
2009,07,04,13,32,20.20
2009,07,04,13,33,20.20
2009,07,04,13,34,20.20
2009,07,04,13,35,20.30
2009,07,04,13,36,20.30
2009,07,04,13,37,20.50
2009,07,04,13,38,20.60
2009,07,04,13,39,20.70
2009,07,04,13,40,20.80
2009,07,04,13,41,20.80
2009,07,04,13,42,20.80
2009,07,04,13,43,20.80
2009,07,04,13,44,20.90
2009,07,04,13,45,20.90
2009,07,04,13,46,20.90
2009,07,04,13,47,20.90
2009,07,04,13,48,20.80
2009,07,04,13,49,20.70
2009,07,04,13,50,20.70
2009,07,04,13,51,20.70
2009,07,04,13,52,20.80
2009,07,04,13,53,21.00
2009,07,04,13,54,21.10
2009,07,04,13,55,21.20
2009,07,04,13,56,21.40
2009,07,04,13,57,21.60
2009,07,04,13,58,21.70
2009,07,04,13,59,21.90
2009,07,04,14,00,22.00
2009,07,04,14,01,22.00
2009,07,04,14,02,21.90
2009,07,04,14,03,21.90
2009,07,04,14,04,22.00
2009,07,04,14,05,22.00
2009,07,04,14,06,22.10
2009,07,04,14,07,22.20
2009,07,04,14,08,22.30
2009,07,04,14,09,22.30
2009,07,04,14,10,22.40
2009,07,04,14,11,22.40
2009,07,04,14,12,22.50
2009,07,04,14,13,22.50
2009,07,04,14,14,22.60
2009,07,04,14,15,22.60
2009,07,04,14,16,22.60
2009,07,04,14,17,22.60
2009,07,04,14,18,22.60
2009,07,04,14,19,22.50
2009,07,04,14,20,22.40
2009,07,04,14,21,22.40
2009,07,04,14,22,22.30
2009,07,04,14,23,22.30
2009,07,04,14,24,22.30
2009,07,04,14,25,22.30
2009,07,04,14,26,22.40
2009,07,04,14,27,22.50
2009,07,04,14,28,22.40
2009,07,04,14,29,22.30
2009,07,04,14,30,22.30
2009,07,04,14,31,22.40
2009,07,04,14,32,22.50
2009,07,04,14,33,22.60
2009,07,04,14,34,22.50
2009,07,04,14,35,22.30
2009,07,04,14,36,22.20
2009,07,04,14,37,22.10
2009,07,04,14,38,22.10
2009,07,04,14,39,22.20
2009,07,04,14,40,22.20
2009,07,04,14,41,22.10
2009,07,04,14,42,22.00
2009,07,04,14,43,21.80
2009,07,04,14,44,21.80
2009,07,04,14,45,21.90
2009,07,04,14,46,22.00
2009,07,04,14,47,22.10
2009,07,04,14,48,22.30
2009,07,04,14,49,22.20
2009,07,04,14,50,22.10
2009,07,04,14,51,22.00
2009,07,04,14,52,22.00
2009,07,04,14,53,22.00
2009,07,04,14,54,22.00
2009,07,04,14,55,22.00
2009,07,04,14,56,22.10
2009,07,04,14,57,22.30
2009,07,04,14,58,22.50
2009,07,04,14,59,22.60
2009,07,04,15,00,22.80
2009,07,04,15,01,22.90
2009,07,04,15,02,22.80
2009,07,04,15,03,22.70
2009,07,04,15,04,22.70
2009,07,04,15,05,22.70
2009,07,04,15,06,22.60
2009,07,04,15,07,22.60
2009,07,04,15,08,22.70
2009,07,04,15,09,22.70
2009,07,04,15,10,22.60
2009,07,04,15,11,22.50
2009,07,04,15,12,22.20
2009,07,04,15,13,22.00
2009,07,04,15,14,21.90
2009,07,04,15,15,22.00
2009,07,04,15,16,22.00
2009,07,04,15,17,22.00
2009,07,04,15,18,21.90
2009,07,04,15,19,21.70
2009,07,04,15,20,21.50
2009,07,04,15,21,21.40
2009,07,04,15,22,21.30
2009,07,04,15,23,21.30
2009,07,04,15,24,21.20
2009,07,04,15,25,21.10
2009,07,04,15,26,21.10
2009,07,04,15,27,21.20
2009,07,04,15,28,21.30
2009,07,04,15,29,21.40
2009,07,04,15,30,21.60
2009,07,04,15,31,21.70
2009,07,04,15,32,22.00
2009,07,04,15,33,22.00
2009,07,04,15,34,22.10
2009,07,04,15,35,22.20
2009,07,04,15,36,22.30
2009,07,04,15,37,22.40
2009,07,04,15,38,22.50
2009,07,04,15,39,22.50
2009,07,04,15,40,22.50
2009,07,04,15,41,22.50
2009,07,04,15,42,22.50
2009,07,04,15,43,22.60
2009,07,04,15,44,22.70
2009,07,04,15,45,22.60
2009,07,04,15,46,22.60
2009,07,04,15,47,22.60
2009,07,04,15,48,22.60
2009,07,04,15,49,22.60
2009,07,04,15,50,22.60
2009,07,04,15,51,22.60
2009,07,04,15,52,22.60
2009,07,04,15,53,22.50
2009,07,04,15,54,22.30
2009,07,04,15,55,22.20
2009,07,04,15,56,22.10
2009,07,04,15,57,21.90
2009,07,04,15,58,21.80
2009,07,04,15,59,21.70
2009,07,04,16,00,21.70
2009,07,04,16,01,21.60
2009,07,04,16,02,21.50
2009,07,04,16,03,21.30
2009,07,04,16,04,21.30
2009,07,04,16,05,21.40
2009,07,04,16,06,21.50
2009,07,04,16,07,21.60
2009,07,04,16,08,21.60
2009,07,04,16,09,21.60
2009,07,04,16,10,21.70
2009,07,04,16,11,21.80
2009,07,04,16,12,21.90
2009,07,04,16,13,22.10
2009,07,04,16,14,22.20
2009,07,04,16,15,22.30
2009,07,04,16,16,22.30
2009,07,04,16,17,22.30
2009,07,04,16,18,22.30
2009,07,04,16,19,22.30
2009,07,04,16,20,22.40
2009,07,04,16,21,22.40
2009,07,04,16,22,22.50
2009,07,04,16,23,22.60
2009,07,04,16,24,22.60
2009,07,04,16,25,22.60
2009,07,04,16,26,22.60
2009,07,04,16,27,22.50
2009,07,04,16,28,22.50
2009,07,04,16,29,22.60
2009,07,04,16,30,22.60
2009,07,04,16,31,22.50
2009,07,04,16,32,22.40
2009,07,04,16,33,22.40
2009,07,04,16,34,22.40
2009,07,04,16,35,22.30
2009,07,04,16,36,22.30
2009,07,04,16,37,22.20
2009,07,04,16,38,22.20
2009,07,04,16,39,22.30
2009,07,04,16,40,22.50
2009,07,04,16,41,22.60
2009,07,04,16,42,22.60
2009,07,04,16,43,22.80
2009,07,04,16,44,22.90
2009,07,04,16,45,22.90
2009,07,04,16,46,23.10
2009,07,04,16,47,23.10
2009,07,04,16,48,23.00
2009,07,04,16,49,22.90
2009,07,04,16,50,23.00
2009,07,04,16,51,23.10
2009,07,04,16,52,23.10
2009,07,04,16,53,23.20
2009,07,04,16,54,23.20
2009,07,04,16,55,23.20
2009,07,04,16,56,23.20
2009,07,04,16,57,23.20
2009,07,04,16,58,23.20
2009,07,04,16,59,23.20
2009,07,04,17,00,23.20
2009,07,04,17,01,23.10
2009,07,04,17,02,23.10
2009,07,04,17,03,23.10
2009,07,04,17,04,23.10
2009,07,04,17,05,23.10
2009,07,04,17,06,23.10
2009,07,04,17,07,23.20
2009,07,04,17,08,23.20
2009,07,04,17,09,23.20
2009,07,04,17,10,23.20
2009,07,04,17,11,23.20
2009,07,04,17,12,23.20
2009,07,04,17,13,23.20
2009,07,04,17,14,23.20
2009,07,04,17,15,23.30
2009,07,04,17,16,23.30
2009,07,04,17,17,23.40
2009,07,04,17,18,23.60
2009,07,04,17,19,23.60